Weather History for Myrtle Beach, SC

Change the Weather History Date:

Monday, January 7, 2013

  Actual Average Record
Temperature  
Mean Temperature 46 °F -  
Max Temperature 55 °F 55 °F 73 °F (2012)
Min Temperature 37 °F 35 °F 17 °F (2014)
Degree Days  
Heating Degree Days 19    
Moisture  
Dew Point 38 °F    
Average Humidity 79    
Maximum Humidity 100    
Minimum Humidity 41    
Precipitation  
Precipitation 0.00 in - - ()
Sea Level Pressure  
Sea Level Pressure 30.29 in    
Wind  
Wind Speed 9 mph (North)    
Max Wind Speed 15 mph    
Max Gust Speed -    
Visibility 10 miles    
Events Fog    
Averages and records for this station are not official NWS values.
T = Trace of Precipitation, MM = Missing Value Source: NWS Daily Summary

Daily Weather History Graph

Daily Weather History Graph

Search for Another Location

Airport:

Trip Planner

Search our weather history database for the weather conditions in past years. The results will help you decide how hot, cold, wet, or windy it might be!

Date:

Astronomy

Jan. 07, 2013 Rise Set
Actual Time 7:21 AM EST 5:23 PM EST
Civil Twilight 6:53 AM EST 5:50 PM EST
Nautical Twilight 6:22 AM EST 6:21 PM EST
Astronomical Twilight 5:52 AM EST 6:51 PM EST
Moon 2:46 AM EST (1/7) 1:30 PM EST (1/7)
Length of Visible Light 10h 57m
Length of Day
10h 02m
Waning Crescent, 23% of the Moon is Illuminated
Jan 7
Waning Crescent
Jan 11
New
Jan 18
First Quarter
Jan 26
Full
Feb 3
Last Quarter

Hourly Weather History & Observations

Time (EST) Temp. Windchill Dew Point Humidity Pressure Visibility Wind Dir Wind Speed Gust Speed Precip Events Conditions
12:15 AM 48.2 °F - 42.8 °F 82% 30.17 in 10.0 mi WNW 10.4 mph - N/A   Overcast
12:35 AM 48.2 °F - 42.8 °F 82% 30.17 in 10.0 mi WNW 9.2 mph - N/A   Overcast
12:55 AM 48.2 °F - 42.8 °F 82% 30.17 in 10.0 mi NW 9.2 mph - N/A   Mostly Cloudy
1:15 AM 46.4 °F 42.4 °F 42.8 °F 87% 30.18 in 10.0 mi NW 8.1 mph - N/A   Partly Cloudy
1:35 AM 46.4 °F 42.4 °F 42.8 °F 87% 30.18 in 10.0 mi NW 8.1 mph - N/A   Clear
1:55 AM 46.4 °F 42.9 °F 42.8 °F 87% 30.19 in 10.0 mi NW 6.9 mph - N/A   Clear
2:15 AM 46.4 °F 41.9 °F 42.8 °F 87% 30.19 in 10.0 mi NNW 9.2 mph - N/A   Mostly Cloudy
2:35 AM 46.4 °F 40.7 °F 42.8 °F 87% 30.19 in 10.0 mi North 12.7 mph - N/A   Mostly Cloudy
2:55 AM 44.6 °F 38.8 °F 42.8 °F 93% 30.20 in 10.0 mi North 11.5 mph - N/A   Partly Cloudy
3:15 AM 42.8 °F 37.5 °F 39.2 °F 87% 30.21 in 10.0 mi North 9.2 mph - N/A   Clear
3:35 AM 42.8 °F 38.0 °F 39.2 °F 87% 30.22 in 10.0 mi North 8.1 mph - N/A   Clear
3:55 AM 42.8 °F 38.6 °F 39.2 °F 87% 30.22 in 10.0 mi NNW 6.9 mph - N/A   Clear
4:15 AM 42.8 °F 38.6 °F 37.4 °F 81% 30.22 in 10.0 mi North 6.9 mph - N/A   Clear
4:35 AM 39.2 °F 35.0 °F 37.4 °F 93% 30.22 in 10.0 mi North 5.8 mph - N/A   Clear
4:55 AM 39.2 °F 35.9 °F 37.4 °F 93% 30.23 in 10.0 mi North 4.6 mph - N/A   Clear
5:15 AM 37.4 °F 34.9 °F 35.6 °F 93% 30.24 in 9.0 mi NNW 3.5 mph - N/A   Clear
5:35 AM 39.2 °F 37.0 °F 35.6 °F 87% 30.24 in 6.0 mi North 3.5 mph - N/A   Clear
5:50 AM 37.4 °F - 35.6 °F 93% 30.26 in 10.0 mi Calm Calm - N/A Fog Patches of Fog
5:55 AM 37.4 °F 33.8 °F 35.6 °F 93% 30.26 in 7.0 mi NNW 4.6 mph - N/A   Clear
6:45 AM 37.4 °F 33.8 °F 37.4 °F 100% 30.28 in 10.0 mi North 4.6 mph - N/A   Clear
7:46 AM 37.4 °F 31.4 °F 35.6 °F 93% 30.31 in 10.0 mi North 8.1 mph - N/A   Clear
8:45 AM 42.8 °F 38.0 °F 41.0 °F 93% 30.34 in 10.0 mi North 8.1 mph - N/A   Clear
9:53 AM 48.2 °F - 37.4 °F 66% 30.38 in 10.0 mi NNE 11.5 mph - N/A   Clear
10:50 AM 51.8 °F - 35.6 °F 54% 30.39 in 10.0 mi NE 15.0 mph - N/A   Clear
11:55 AM 53.6 °F - 32.0 °F 44% 30.36 in 10.0 mi ENE 15.0 mph - N/A   Mostly Cloudy
12:45 PM 53.6 °F - 30.2 °F 41% 30.35 in 10.0 mi NNE 12.7 mph - N/A   Mostly Cloudy
1:45 PM 55.4 °F - 33.8 °F 44% 30.36 in 10.0 mi ENE 9.2 mph - N/A   Clear
2:45 PM 53.6 °F - 33.8 °F 47% 30.37 in 10.0 mi ESE 13.8 mph - N/A   Clear
3:45 PM 53.6 °F - 35.6 °F 51% 30.37 in 10.0 mi East 13.8 mph - N/A   Clear
4:50 PM 51.8 °F - 37.4 °F 58% 30.38 in 10.0 mi East 11.5 mph - N/A   Clear
6:50 PM 48.2 °F - 39.2 °F 71% 30.40 in 10.0 mi East 11.5 mph - N/A   Clear
7:50 PM 48.2 °F - - N/A% 30.40 in 10.0 mi ENE 11.5 mph - N/A   Clear
8:50 PM 48.2 °F - 41.0 °F 76% 30.40 in 10.0 mi East 11.5 mph - N/A   Clear
10:55 PM 42.8 °F 38.0 °F 39.2 °F 87% 30.39 in 10.0 mi North 8.1 mph - N/A   Scattered Clouds
11:15 PM 44.6 °F 41.4 °F 39.2 °F 81% 30.39 in 10.0 mi NNE 5.8 mph - N/A   Overcast
11:35 PM 44.6 °F 40.7 °F 39.2 °F 81% 30.38 in 10.0 mi NNE 6.9 mph - N/A   Overcast
11:55 PM 46.4 °F 42.9 °F 39.2 °F 76% 30.38 in 10.0 mi North 6.9 mph - N/A   Overcast